Regional Weather Roundup
Issued by NWS

Home | Current Version | Previous Version | Text Only | Print | Product List | Glossary Off
Versions: 1 2 3 4 5 6 7 8 9 10 11 12 13 14 15 16 17 18 19 20 21 22 23 24 25 26 27 28 29 30 31 32 33 34 35 36 37 38 39 40 41 42 43 44 45 46 47 48 49 50

000
ASUS43 KDTX 302301
RWRMI
MICHIGAN HOURLY REGIONAL WEATHER ROUNDUP
NATIONAL WEATHER SERVICE DETROIT/PONTIAC MI
700 PM EDT THU OCT 30 2014

NOTE: "FAIR" INDICATES FEW OR NO CLOUDS BELOW 12,000 FEET WITH NO
SIGNIFICANT WEATHER AND/OR OBSTRUCTION TO VISIBILITY.

MIZ047>049-052>055-059>063-066>070-074>076-081>083-310000-
SOUTHEAST LOWER MICHIGAN

CITY           SKY/WX    TMP DP  RH WIND       PRES   REMARKS
ADRIAN         CLOUDY    47  38  71 W5        30.08S
ALMA           CLOUDY    47  37  68 SW6       30.04S
ANN ARBOR      CLOUDY    47  34  60 SW5       30.06S
BAD AXE        LGT RAIN  44  40  85 S3        30.04S
CARO           DRIZZLE   46  39  77 CALM      30.03F
DETROIT CITY   CLOUDY    50  34  54 W6        30.07S
DETROIT        CLOUDY    48  35  60 SW6       30.07S
FLINT          CLOUDY    49  36  61 SW5       30.05S
GROSSE ILE     CLOUDY    48  36  61 CALM      30.06S
HILLSDALE      CLOUDY    47  36  66 CALM      30.06S
HOWELL         CLOUDY    46  36  68 CALM      30.05S

CITY           SKY/WX    TMP DP  RH WIND       PRES   REMARKS
JACKSON        CLOUDY    46  36  68 SW3       30.05S
LAMBERTVILLE   CLOUDY    48  36  61 CALM      30.08S
LANSING        CLOUDY    46  36  68 SW6       30.06S
LAPEER         CLOUDY    46  36  69 S3        30.05S
MASON          CLOUDY    46  37  68 CALM      30.05F
MONROE         CLOUDY    46  37  71 SW3       30.06S
MT. CLEMENS    CLOUDY    46  39  75 SE5       30.04S
PONTIAC        CLOUDY    47  34  60 SW5       30.04F
PORT HOPE        N/A     45  38  76 CALM      30.02F
PORT HURON     CLOUDY    46  37  71 CALM      30.06S
TRI CITIES     LGT RAIN  47  40  76 SW6       30.04S
TROY           CLOUDY    49  33  52 SW3       30.07S
SAGINAW HB     LGT RAIN  46  37  71 SW6       30.04S
$$
MIZ043>046-050>051-056>058-064>065-071>073-077>080-310000-
SOUTHWEST LOWER MICHIGAN

CITY           SKY/WX    TMP DP  RH WIND       PRES   REMARKS
BATTLE CREEK   CLOUDY    47  36  65 S5        30.06S
BENTON HARBOR  CLOUDY    47  36  65 W7        30.06S
BIG RAPIDS     CLOUDY    46  39  77 SW6       30.01S
COLDWATER      CLOUDY    48  37  65 SW3       30.06S
FREMONT        MOCLDY    44  34  67 CALM      30.03S
HOLLAND        CLOUDY    49  37  63 W9        30.06S
GRAND RAPIDS   CLOUDY    48  38  68 W8        30.05S
IONIA          CLOUDY    47  37  68 W8        30.04S
KALAMAZOO      CLOUDY    48  35  60 W9        30.06S
LUDINGTON      CLOUDY    47  39  74 W5        30.03S
MARSHALL       CLOUDY    46  35  66 CALM      30.05S
MOUNT PLEASANT CLOUDY    46  38  74 SW5       30.02S
MUSKEGON       CLOUDY    48  36  63 W6        30.05S
SOUTH HAVEN    CLOUDY    49  38  64 W5        30.06S
$$
MIZ016>042-310000-
NORTHERN LOWER MICHIGAN

CITY           SKY/WX    TMP DP  RH WIND       PRES   REMARKS
ALPENA         LGT RAIN  42  41  96 S7        30.00F
BEAVER ISLAND  DRIZZLE   44  39  84 W8        29.97S
BELLAIRE       CLOUDY    46  37  72 CALM      30.00S
CADILLAC       CLOUDY    42  38  83 SW5       29.99S
CHARLEVOIX     RAIN      44  37  78 W9G18     30.01S
FRANKFORT      CLOUDY    46  37  73 W7        30.00F
GAYLORD        CLOUDY    41  38  89 SW8       29.97F
GRAYLING       CLOUDY    42  38  87 CALM      30.00S
HARBOR SPRINGS DRIZZLE   44  40  85 SW10G16   29.97F
HOUGHTON LAKE  CLOUDY    42  39  89 SW5       30.00F
MANISTEE       MOCLDY    46  34  61 W7        30.02S
OSCODA         LGT RAIN  44  41  91 CALM      30.01S
PELLSTON       LGT RAIN  42  42 100 CALM      29.98S
TRAVERSE CITY  CLOUDY    46  35  65 SW5       29.99F
$$
MIZ007>008-015-310000-
EASTERN UPPER MICHIGAN

CITY           SKY/WX    TMP DP  RH WIND       PRES   REMARKS
KINROSS        CLOUDY    39  39 100 CALM      29.96F
MACKINAC ISLAN LGT RAIN  42  41  98 CALM      29.96F
NEWBERRY       DRIZZLE   40  38  95 W6        29.96S
S. S. MARIE    LGT RAIN  41  38  89 S5        29.96S
MUNISING         N/A     42  38  85 SW6       29.97F
$$
MIZ004>006-011>014-085-310000-
CENTRAL UPPER MICHIGAN

CITY           SKY/WX    TMP DP  RH WIND       PRES   REMARKS
MANISTIQUE     LGT RAIN  40  39  94 NW6       29.98R
ESCANABA       CLOUDY    43  32  65 W7        29.99R
MENOMINEE      CLOUDY    45  34  65 CALM      30.00S
SAWYER-GWINN   CLOUDY    39  36  87 W5        29.97S
$$
MIZ001>003-009>011-084-310000-
WESTERN UPPER MICHIGAN

CITY           SKY/WX    TMP DP  RH WIND       PRES   REMARKS
IRON MOUNTAIN  CLOUDY    41  32  70 NW6       29.99S
HOUGHTON       LGT RAIN  38  34  85 NW7       29.98S WCI  33
COPPER HARBOR    N/A     40  35  83 NE8       29.99R WCI  34
IRONWOOD       CLOUDY    39  34  81 W9        30.02S WCI  33
$$

ABBREVIATIONS USED IN REMARKS
   TC - TEMPERATURE IN CELSIUS
  WCI - WIND CHILL INDEX
   HX - HEAT INDEX
  VSB - VISIBILITY




USA.gov is the U.S. government's official web portal to all federal, state and local government web resources and services.